This is the latest recevied weather packets stored in our database for station/object K4VEB. If no packets are shown the sender has not sent any weather packets the latest 10 day(s).
| Time | Temp. | Humidity | Pressure | Rain* | Wind** | Luminosity | Snow |
|---|---|---|---|---|---|---|---|
| 1777228309 | 30° C | 46% | 1010.8 hPa | 0 mm | - | 839 W/m² | - |
| 1777228004 | 30.56° C | 46% | 1010.6 hPa | 0 mm | - | 844 W/m² | - |
| 1777227699 | 30° C | 48% | 1010.6 hPa | 0 mm | - | 854 W/m² | - |
| 1777227395 | 29.44° C | 49% | 1010.6 hPa | 0 mm | - | 905 W/m² | - |
| 1777227092 | 30.56° C | 47% | 1010.6 hPa | 0 mm | - | 139 W/m² | - |
| 1777226788 | 30.56° C | 49% | 1010.7 hPa | 0 mm | - | 881 W/m² | - |
| 1777226487 | 30° C | 50% | 1010.7 hPa | 0 mm | - | 900 W/m² | - |
| 1777226183 | 29.44° C | 51% | 1010.9 hPa | 0 mm | - | 909 W/m² | - |
| 1777225880 | 30° C | 51% | 1010.7 hPa | 0 mm | - | 1017 W/m² | - |
| 1777225575 | 30° C | 50% | 1010.7 hPa | 0 mm | - | 950 W/m² | - |
| 1777225273 | 30° C | 50% | 1010.8 hPa | 0 mm | - | 949 W/m² | - |
| 1777224969 | 29.44° C | 52% | 1011.1 hPa | 0 mm | - | 985 W/m² | - |
| 1777224667 | 29.44° C | 51% | 1010.8 hPa | 0 mm | - | 303 W/m² | - |
| 1777224366 | 30° C | 52% | 1010.8 hPa | 0 mm | - | 990 W/m² | - |
| 1777224063 | 30° C | 51% | 1011 hPa | 0 mm | - | 711 W/m² | - |
| 1777223760 | 29.44° C | 55% | 1011 hPa | 0 mm | - | 259 W/m² | - |
| 1777223455 | 28.89° C | 55% | 1011 hPa | 0 mm | - | 581 W/m² | - |
| 1777223154 | 30° C | 55% | 1011.1 hPa | 0 mm | - | 165 W/m² | - |
| 1777222850 | 30° C | 58% | 1011.1 hPa | 0 mm | - | 949 W/m² | - |
| 1777222549 | 29.44° C | 57% | 1011.2 hPa | 0 mm | - | 380 W/m² | - |
| 1777222245 | 29.44° C | 57% | 1011.2 hPa | 0 mm | - | 859 W/m² | - |
| 1777221943 | 28.89° C | 59% | 1011.3 hPa | 0 mm | - | 896 W/m² | - |
| 1777221638 | 28.89° C | 61% | 1011.4 hPa | 0 mm | - | 849 W/m² | - |
| 1777221335 | 28.33° C | 62% | 1011.6 hPa | 0 mm | - | 865 W/m² | - |
| 1777221033 | 28.33° C | 65% | 1011.3 hPa | 0 mm | - | 799 W/m² | - |
* Rain latest hour (hover to see other rain measurements)
** Current wind speed in m/s (hover to see current wind gust speed)